Weather History for KMXO - March, 2012

Change the Weather History Date:

Saturday, March 17, 2012

  Actual Average Record
Temperature  
Mean Temperature 68 °F -  
Max Temperature 80 °F 42 °F - (-1)
Min Temperature 57 °F 26 °F - (-1)
Cooling Degree Days 4    
Growing Degree Days 18 (Base 50)    
Moisture  
Dew Point 58 °F    
Average Humidity 70    
Maximum Humidity 94    
Minimum Humidity 44    
Precipitation  
Precipitation 0.00 in - - ()
Sea Level Pressure  
Sea Level Pressure 29.95 in    
Wind  
Wind Speed 13 mph (SSE)    
Max Wind Speed 23 mph    
Max Gust Speed 30 mph    
Visibility 10 miles    
Events      
Averages and records for this station are not official NWS values.
T = Trace of Precipitation, MM = Missing Value Source: NWS Daily Summary

Daily Weather History Graph

Daily Weather History Graph

Search for Another Location

Airport or City:

Trip Planner

Search our weather history database for the weather conditions in past years. The results will help you decide how hot, cold, wet, or windy it might be!

Date:

Astronomy

Mar. 17, 2012 Rise Set
Actual Time 7:12 AM CDT 7:14 PM CDT
Civil Twilight 6:44 AM CDT 7:42 PM CDT
Nautical Twilight 6:11 AM CDT 8:14 PM CDT
Astronomical Twilight 5:38 AM CDT 8:47 PM CDT
Moon 4:18 AM CDT (3/17) 2:33 PM CDT (3/17)
Length of Visible Light 12h 57m
Length of Day
12h 01m
Waning Crescent, 23% of the Moon is Illuminated
Mar 17
Waning Crescent
Mar 22
New
Mar 30
First Quarter
Apr 6
Full
Apr 13
Last Quarter

Hourly Weather History & Observations

Time (CDT) Temp. Heat Index Dew Point Humidity Pressure Visibility Wind Dir Wind Speed Gust Speed Precip Events Conditions
12:15 AM 64.4 °F - 55.4 °F 73% 29.97 in 10.0 mi SSE 11.5 mph - N/A   Clear
12:35 AM 62.6 °F - 55.4 °F 77% 29.96 in 10.0 mi SSE 11.5 mph - N/A   Clear
12:55 AM 62.6 °F - 55.4 °F 77% 29.96 in 10.0 mi SSE 11.5 mph - N/A   Mostly Cloudy
1:15 AM 62.6 °F - 55.4 °F 77% 29.96 in 10.0 mi SSE 11.5 mph - N/A   Mostly Cloudy
1:35 AM 62.6 °F - 55.4 °F 77% 29.96 in 10.0 mi SSE 13.8 mph 18.4 mph N/A   Scattered Clouds
1:55 AM 62.6 °F - 55.4 °F 77% 29.97 in 10.0 mi SSE 13.8 mph - N/A   Clear
2:15 AM 62.6 °F - 55.4 °F 77% 29.97 in 10.0 mi SSE 12.7 mph - N/A   Clear
2:35 AM 60.8 °F - 55.4 °F 82% 29.97 in 10.0 mi SSE 11.5 mph - N/A   Clear
2:55 AM 60.8 °F - 55.4 °F 82% 29.97 in 10.0 mi SSE 9.2 mph - N/A   Clear
3:15 AM 60.8 °F - 55.4 °F 82% 29.97 in 10.0 mi SSE 9.2 mph - N/A   Clear
3:35 AM 59.0 °F - 55.4 °F 88% 29.96 in 10.0 mi SSE 10.4 mph - N/A   Clear
3:55 AM 59.0 °F - 55.4 °F 88% 29.96 in 10.0 mi SSE 9.2 mph - N/A   Clear
4:15 AM 59.0 °F - 55.4 °F 88% 29.95 in 10.0 mi SSE 9.2 mph - N/A   Clear
4:35 AM 59.0 °F - 55.4 °F 88% 29.96 in 10.0 mi SSE 8.1 mph - N/A   Clear
4:55 AM 59.0 °F - 55.4 °F 88% 29.96 in 10.0 mi SE 10.4 mph - N/A   Clear
5:15 AM 59.0 °F - 55.4 °F 88% 29.96 in 10.0 mi SE 9.2 mph - N/A   Clear
5:35 AM 59.0 °F - 55.4 °F 88% 29.96 in 10.0 mi SSE 9.2 mph - N/A   Clear
5:55 AM 57.2 °F - 55.4 °F 94% 29.97 in 10.0 mi SSE 8.1 mph - N/A   Clear
6:15 AM 57.2 °F - 55.4 °F 94% 29.97 in 10.0 mi SSE 10.4 mph - N/A   Clear
6:35 AM 57.2 °F - 55.4 °F 94% 29.97 in 10.0 mi SSE 9.2 mph - N/A   Clear
6:55 AM 57.2 °F - 55.4 °F 94% 29.98 in 10.0 mi SSE 9.2 mph - N/A   Clear
7:15 AM 59.0 °F - 55.4 °F 88% 29.98 in 10.0 mi SSE 9.2 mph - N/A   Scattered Clouds
7:35 AM 59.0 °F - 55.4 °F 88% 29.99 in 7.0 mi SSE 8.1 mph - N/A   Scattered Clouds
7:55 AM 59.0 °F - 55.4 °F 88% 29.99 in 7.0 mi SSE 9.2 mph - N/A   Clear
8:15 AM 60.8 °F - 57.2 °F 88% 29.99 in 7.0 mi SSE 11.5 mph - N/A   Mostly Cloudy
8:35 AM 60.8 °F - 57.2 °F 88% 29.99 in 10.0 mi SSE 13.8 mph - N/A   Scattered Clouds
8:55 AM 62.6 °F - 57.2 °F 82% 29.99 in 10.0 mi SSE 12.7 mph - N/A   Scattered Clouds
9:15 AM 64.4 °F - 59.0 °F 83% 29.99 in 10.0 mi SSE 11.5 mph 18.4 mph N/A   Clear
9:35 AM 66.2 °F - 60.8 °F 83% 29.99 in 10.0 mi South 12.7 mph - N/A   Clear
9:55 AM 68.0 °F - 60.8 °F 78% 29.99 in 10.0 mi South 15.0 mph - N/A   Clear
10:15 AM 69.8 °F - 62.6 °F 78% 29.99 in 10.0 mi South 13.8 mph 19.6 mph N/A   Clear
10:35 AM 69.8 °F - 62.6 °F 78% 29.99 in 10.0 mi South 13.8 mph - N/A   Clear
10:55 AM 73.4 °F - 62.6 °F 69% 29.99 in 10.0 mi South 12.7 mph - N/A   Clear
11:15 AM 73.4 °F - 62.6 °F 69% 29.98 in 10.0 mi South 17.3 mph 20.7 mph N/A   Clear
11:35 AM 75.2 °F - 62.6 °F 65% 29.98 in 10.0 mi SSE 16.1 mph 21.9 mph N/A   Clear
11:55 AM 77.0 °F - 62.6 °F 61% 29.97 in 10.0 mi SSE 15.0 mph 20.7 mph N/A   Clear
12:15 PM 77.0 °F - 62.6 °F 61% 29.96 in 10.0 mi South 16.1 mph 24.2 mph N/A   Scattered Clouds
12:35 PM 78.8 °F - 60.8 °F 54% 29.96 in 10.0 mi South 15.0 mph 25.3 mph N/A   Clear
12:55 PM 78.8 °F - 60.8 °F 54% 29.95 in 10.0 mi South 16.1 mph 29.9 mph N/A   Clear
1:15 PM 78.8 °F - 60.8 °F 54% 29.94 in 10.0 mi South 19.6 mph 27.6 mph N/A   Scattered Clouds
1:35 PM 80.6 °F 81.5 °F 60.8 °F 51% 29.93 in 10.0 mi SSE 20.7 mph 28.8 mph N/A   Scattered Clouds
1:55 PM 78.8 °F - 59.0 °F 51% 29.92 in 10.0 mi South 21.9 mph 27.6 mph N/A   Scattered Clouds
2:15 PM 80.6 °F 81.1 °F 59.0 °F 48% 29.91 in 10.0 mi South 20.7 mph 29.9 mph N/A   Scattered Clouds
2:35 PM 78.8 °F - 59.0 °F 51% 29.90 in 10.0 mi South 23.0 mph 27.6 mph N/A   Scattered Clouds
2:55 PM 80.6 °F 80.8 °F 57.2 °F 45% 29.89 in 10.0 mi South 20.7 mph 25.3 mph N/A   Scattered Clouds
3:15 PM 80.6 °F 80.8 °F 57.2 °F 45% 29.89 in 10.0 mi South 18.4 mph 25.3 mph N/A   Scattered Clouds
3:35 PM 80.6 °F 80.8 °F 57.2 °F 45% 29.89 in 10.0 mi South 19.6 mph 29.9 mph N/A   Mostly Cloudy
3:55 PM 80.6 °F 80.8 °F 57.2 °F 45% 29.88 in 10.0 mi South 18.4 mph 24.2 mph N/A   Scattered Clouds
4:15 PM 80.6 °F 80.8 °F 57.2 °F 45% 29.88 in 10.0 mi South 15.0 mph 25.3 mph N/A   Scattered Clouds
4:35 PM 78.8 °F - 57.2 °F 47% 29.88 in 10.0 mi South 17.3 mph 26.5 mph N/A   Scattered Clouds
4:55 PM 80.6 °F 80.8 °F 57.2 °F 45% 29.87 in 10.0 mi South 19.6 mph 27.6 mph N/A   Scattered Clouds
5:15 PM 78.8 °F - 57.2 °F 47% 29.88 in 10.0 mi South 15.0 mph 20.7 mph N/A   Scattered Clouds
5:35 PM 78.8 °F - 55.4 °F 44% 29.88 in 10.0 mi South 17.3 mph - N/A   Scattered Clouds
5:55 PM 78.8 °F - 57.2 °F 47% 29.88 in 10.0 mi South 15.0 mph 23.0 mph N/A   Mostly Cloudy
6:15 PM 77.0 °F - 57.2 °F 50% 29.88 in 10.0 mi South 12.7 mph - N/A   Overcast
6:35 PM 75.2 °F - 57.2 °F 53% 29.88 in 10.0 mi South 13.8 mph - N/A   Mostly Cloudy
6:55 PM 75.2 °F - 59.0 °F 57% 29.89 in 10.0 mi South 11.5 mph 18.4 mph N/A   Scattered Clouds
7:15 PM 73.4 °F - 57.2 °F 57% 29.89 in 10.0 mi South 12.7 mph 18.4 mph N/A   Clear
7:35 PM 71.6 °F - 59.0 °F 64% 29.89 in 10.0 mi South 9.2 mph - N/A   Clear
7:55 PM 69.8 °F - 59.0 °F 68% 29.89 in 10.0 mi South 8.1 mph - N/A   Clear
8:15 PM 69.8 °F - 59.0 °F 68% 29.90 in 10.0 mi South 10.4 mph - N/A   Clear
8:35 PM 69.8 °F - 60.8 °F 73% 29.92 in 10.0 mi South 9.2 mph - N/A   Clear
8:55 PM 66.2 °F - 60.8 °F 83% 29.92 in 10.0 mi SSE 11.5 mph - N/A   Clear
9:15 PM 66.2 °F - 60.8 °F 83% 29.92 in 10.0 mi South 11.5 mph - N/A   Clear
9:35 PM 66.2 °F - 60.8 °F 83% 29.92 in 10.0 mi South 13.8 mph - N/A   Clear
9:55 PM 66.2 °F - 57.2 °F 73% 29.93 in 10.0 mi South 8.1 mph - N/A   Clear
10:15 PM 64.4 °F - 57.2 °F 77% 29.93 in 10.0 mi South 11.5 mph - N/A   Clear
10:35 PM 64.4 °F - 57.2 °F 77% 29.94 in 10.0 mi South 12.7 mph - N/A   Clear
10:55 PM 62.6 °F - 57.2 °F 82% 29.94 in 10.0 mi South 10.4 mph - N/A   Clear
11:15 PM 62.6 °F - 55.4 °F 77% 29.94 in 10.0 mi South 10.4 mph - N/A   Clear
11:35 PM 62.6 °F - 55.4 °F 77% 29.94 in 10.0 mi South 9.2 mph - N/A   Clear
11:55 PM 60.8 °F - 53.6 °F 77% 29.95 in 10.0 mi South 9.2 mph - N/A   Clear